Wind_Speed
32 30 28 27 24 23 23 23 22 20 20 20 21 21 22 19 17 12 11 12 11 11 9 9 10 10 10 9 10 9 9 7 7
32 28 28 28 25 24 23 23 23 22 21 19 20 20 21 23 20 17 13 12 13 11 12 10 12 12 12 12 11 12 10 8 11
29 28 24 25 26 24 22 22 22 21 21 20 19 18 19 19 20 19 17 16 14 12 13 13 11 13 13 12 13 12 14 10 11
16 19 23 24 25 24 23 21 21 21 21 20 19 19 19 19 18 18 17 17 15 13 13 14 15 13 12 13 13 13 13 14 13
10 21 22 22 29 25 23 22 22 23 21 21 20 19 19 19 19 19 18 19 18 17 18 16 14 13 13 14 15 14 16 14 12
9 14 18 19 22 28 26 22 21 22 22 21 19 18 18 18 19 19 19 18 18 19 20 19 16 17 16 14 14 16 13 16 15
2 1 6 14 20 22 26 20 20 20 21 21 19 19 19 19 18 18 17 17 17 17 18 21 20 19 19 17 15 14 15 15 15
8 10 4 5 13 14 18 19 18 25 26 20 26 25 20 18 17 19 18 17 17 18 18 19 21 21 21 20 17 14 14 14 16
11 10 7 5 4 7 9 11 11 13 17 22 24 24 23 19 23 24 25 25 25 22 23 21 20 19 19 19 17 19 17 16 15
8 10 8 7 1 6 13 14 21 12 8 10 19 19 22 30 28 26 23 25 24 26 28 25 22 22 19 19 19 20 18 17 16
7 9 7 7 4 4 8 11 9 10 12 10 12 13 18 19 19 19 22 22 26 24 24 28 34 26 22 21 20 21 21 21 22
5 7 5 5 6 4 4 8 7 8 9 9 6 7 8 9 11 12 16 21 22 23 24 27 27 31 30 24 23 21 21 22 27
5 5 5 6 6 4 3 4 5 2 5 5 6 9 9 8 9 10 12 15 18 19 22 22 23 24 30 28 25 20 20 21 20
5 5 5 6 6 7 6 2 2 5 5 7 8 8 8 7 7 8 11 11 10 10 10 12 15 19 24 24 23 15 11 14 18
5 5 5 6 6 7 6 5 4 6 8 8 6 6 7 7 5 5 8 7 7 11 10 11 15 14 10 7 7 11 10 8 8
5 6 6 7 8 7 9 8 5 4 7 7 6 8 8 6 4 2 2 7 1 2 3 2 4 5 6 9 10 11 11 10 10
7 7 7 6 7 8 9 10 9 9 8 6 7 7 6 5 5 6 2 2 3 3 4 5 5 6 6 6 8 9 9 9 11
11 7 7 7 8 9 10 10 11 12 13 11 9 9 7 8 7 7 3 3 4 4 3 3 4 6 6 7 7 7 9 12 11
12 9 8 8 8 10 11 11 12 12 11 11 10 12 12 13 11 11 10 10 9 7 5 4 3 3 3 2 3 0 1 2 2
13 11 10 10 10 10 11 11 12 12 12 12 13 15 15 15 14 13 13 12 11 8 9 10 10 9 9 10 9 8 5 5 4
Wind_Direction
206 204 207 206 207 206 205 205 207 206 210 214 217 214 216 217 222 214 224 239 218 239 236 240 244 242 245 250 243 249 252 259 253
204 205 205 206 207 209 208 207 210 210 211 213 213 214 215 221 221 220 221 228 238 245 244 244 255 254 257 254 247 249 244 260 262
195 203 211 206 209 212 211 210 212 214 216 217 213 210 212 212 217 231 235 241 240 237 240 265 263 270 260 256 255 255 248 255 266
199 207 210 211 210 211 214 215 212 215 216 216 216 213 212 214 220 225 232 234 243 251 258 270 276 272 263 262 261 255 251 254 258
239 218 215 229 224 214 211 214 213 215 214 216 218 218 217 220 221 223 229 238 242 247 258 266 271 257 266 270 267 255 255 254 248
223 226 225 223 224 229 224 217 218 214 217 218 219 220 223 225 228 230 234 238 246 251 253 258 260 257 261 271 271 258 258 256 255
35 191 218 221 216 225 220 212 217 218 215 217 218 223 223 229 232 233 237 244 246 246 252 257 258 255 258 266 270 266 265 257 252
48 37 47 220 206 207 220 225 219 237 233 227 234 230 228 233 238 237 238 246 251 259 257 253 254 253 253 257 262 265 265 259 255
52 50 40 61 108 192 189 233 230 236 240 237 254 250 249 245 261 258 260 264 272 264 265 262 256 250 250 255 253 250 258 260 259
60 55 43 37 157 145 203 200 210 208 219 249 241 243 241 249 258 258 265 266 263 261 260 259 258 260 254 254 251 252 255 257 258
31 62 42 41 48 238 218 222 233 243 244 242 246 242 236 237 256 255 259 265 267 267 263 260 255 254 251 254 246 253 255 259 259
48 52 49 33 32 33 258 249 239 250 240 221 216 229 208 213 234 248 253 259 264 265 260 260 248 253 251 257 256 256 260 265 257
56 46 31 28 25 13 339 289 229 204 196 216 232 235 226 243 264 271 275 280 268 263 265 255 247 246 242 243 245 247 255 260 251
82 58 48 33 38 43 45 47 196 212 195 189 206 192 217 234 251 277 280 277 274 262 243 234 236 242 240 240 222 234 236 264 251
102 111 92 86 70 62 71 89 148 196 197 204 228 222 248 239 264 279 298 262 276 268 244 247 228 211 216 193 217 218 236 265 215
137 144 124 110 100 89 82 89 109 168 186 200 209 208 213 209 210 262 32 106 149 216 186 170 182 187 201 208 211 225 227 222 216
146 147 130 114 105 106 101 91 94 98 109 141 185 186 183 198 186 180 190 225 211 242 237 222 180 202 222 225 224 227 230 233 233
150 139 128 133 126 100 103 100 97 87 80 85 110 116 122 135 152 164 188 211 229 227 243 220 212 241 245 254 249 241 244 244 225
141 144 134 121 113 115 111 105 99 96 93 95 98 96 96 99 104 105 103 101 99 97 96 84 95 115 109 89 97 293 194 245 312
143 139 131 127 121 111 106 105 103 98 97 95 96 97 98 102 98 95 95 90 90 90 86 79 79 89 87 87 80 75 75 63 87
Height
1522 1528 1533 1537 1543 1549 1553 1558 1561 1565 1567 1569 1572 1575 1579 1583 1586 1589 1592 1593 1595 1595 1597 1598 1598 1598 1598 1599 1600 1601 1601 1602 1603
1515 1523 1528 1534 1540 1545 1550 1554 1558 1561 1564 1566 1569 1572 1576 1579 1583 1586 1590 1592 1593 1594 1594 1595 1594 1594 1595 1596 1597 1597 1598 1600 1601
1512 1521 1526 1531 1537 1542 1547 1551 1555 1559 1562 1564 1567 1570 1573 1576 1580 1583 1585 1587 1589 1591 1591 1590 1591 1591 1592 1593 1594 1594 1595 1597 1598
1513 1517 1524 1529 1534 1538 1543 1548 1552 1556 1559 1562 1565 1567 1571 1574 1577 1580 1582 1584 1586 1587 1588 1588 1588 1588 1589 1590 1591 1592 1593 1593 1594
1511 1516 1523 1526 1530 1535 1539 1544 1548 1552 1556 1558 1562 1566 1568 1570 1573 1575 1578 1579 1581 1583 1584 1585 1586 1586 1587 1587 1588 1589 1589 1590 1593
1515 1517 1519 1523 1526 1528 1534 1540 1544 1549 1552 1556 1559 1562 1565 1567 1569 1572 1574 1576 1577 1578 1580 1582 1583 1583 1584 1585 1585 1585 1586 1587 1587
1513 1516 1518 1521 1524 1525 1528 1536 1541 1544 1548 1551 1556 1559 1562 1564 1566 1568 1571 1573 1574 1575 1577 1577 1578 1579 1580 1581 1581 1582 1582 1583 1584
1517 1517 1518 1520 1522 1524 1526 1530 1537 1537 1542 1546 1549 1553 1557 1560 1563 1565 1567 1569 1571 1571 1572 1574 1574 1575 1576 1577 1578 1580 1580 1579 1580
1519 1519 1520 1521 1520 1522 1526 1530 1532 1535 1537 1540 1543 1547 1551 1555 1557 1560 1562 1563 1566 1568 1568 1569 1570 1571 1572 1572 1574 1575 1576 1576 1576
1521 1519 1520 1522 1521 1521 1522 1526 1531 1533 1533 1536 1538 1542 1544 1547 1553 1555 1556 1557 1560 1559 1562 1564 1564 1566 1568 1568 1568 1568 1571 1572 1572
1522 1518 1521 1522 1521 1523 1526 1529 1528 1526 1528 1530 1536 1538 1539 1542 1548 1548 1549 1551 1553 1553 1553 1554 1557 1558 1562 1563 1563 1564 1565 1566 1567
1522 1521 1524 1523 1522 1521 1521 1521 1521 1523 1527 1533 1533 1535 1536 1538 1542 1542 1545 1545 1545 1545 1545 1547 1547 1549 1548 1555 1558 1558 1560 1561 1561
1523 1523 1524 1522 1522 1521 1520 1521 1522 1525 1527 1527 1532 1534 1533 1535 1536 1537 1538 1537 1537 1537 1538 1539 1541 1544 1545 1547 1549 1553 1554 1554 1555
1525 1524 1524 1523 1524 1522 1521 1520 1522 1524 1526 1529 1531 1532 1534 1534 1534 1535 1534 1534 1532 1534 1535 1536 1536 1538 1538 1540 1542 1544 1548 1548 1547
1525 1526 1527 1526 1526 1524 1524 1523 1524 1526 1526 1528 1530 1531 1531 1530 1531 1532 1532 1531 1531 1533 1533 1534 1533 1533 1536 1533 1536 1540 1543 1545 1543
1526 1527 1527 1527 1527 1526 1526 1525 1525 1526 1526 1527 1527 1528 1529 1529 1531 1532 1533 1532 1534 1534 1534 1535 1534 1536 1538 1538 1537 1539 1542 1541 1541
1527 1527 1527 1527 1528 1528 1528 1528 1527 1527 1527 1527 1527 1528 1529 1530 1529 1530 1532 1534 1535 1535 1535 1535 1535 1537 1540 1539 1540 1541 1541 1541 1541
1526 1530 1530 1529 1530 1531 1531 1530 1530 1529 1530 1529 1529 1529 1529 1529 1530 1531 1531 1533 1534 1535 1535 1535 1536 1537 1538 1539 1538 1538 1539 1537 1538
1526 1530 1531 1531 1531 1532 1532 1532 1532 1532 1533 1533 1532 1531 1531 1530 1532 1532 1532 1533 1535 1536 1536 1535 1536 1536 1536 1538 1536 1537 1537 1538 1539
1526 1531 1532 1534 1535 1535 1535 1535 1535 1535 1536 1536 1536 1535 1535 1535 1535 1536 1536 1535 1537 1537 1537 1538 1538 1540 1540 1538 1539 1540 1539 1539 1539